Date,TemperatureHighF,TemperatureAvgF,TemperatureLowF,DewpointHighF,DewpointAvgF,DewpointLowF,HumidityHigh,HumidityAvg,HumidityLow,PressureMaxIn,PressureMinIn,WindSpeedMaxMPH,WindSpeedAvgMPH,GustSpeedMaxMPH,PrecipitationSumIn
2014-3-1,50.7,44.9,44.9,47.1,36.7,-99.9,98,85,77,30.84,30.63,13,-201,22,1.16
2014-3-2,53.9,42.9,45.9,49.3,28.2,-99.9,98,80,82,31.02,30.84,8,-506,9,0.04
2014-3-3,65.8,41.3,46.9,53.3,5.2,-99.9,92,50,43,31.01,30.85,12,-434,15,0.00
2014-3-4,61.4,53.0,48.4,51.8,48.6,45.8,95,85,68,30.91,30.79,9,-76,12,0.00
2014-3-5,76.5,62.2,52.6,50.9,39.2,-99.9,86,49,20,30.95,30.81,18,-39,20,0.00
2014-3-6,73.7,59.5,55.0,53.8,38.2,-99.9,88,53,35,30.89,30.73,11,-243,18,0.00
2014-3-7,70.6,56.4,49.2,52.2,49.9,44.9,98,82,41,30.82,30.71,8,-558,12,0.00
2014-3-8,80.5,66.9,56.7,37.0,19.6,-16.0,45,20,2,30.97,30.80,28,-3,38,0.00
2014-3-9,78.7,66.5,61.5,26.7,17.8,12.8,24,15,9,30.99,30.84,22,-4,31,0.00
2014-3-10,77.3,67.3,60.8,31.3,23.5,13.2,30,20,12,30.90,30.75,16,-14,22,0.00
2014-3-11,73.8,58.7,55.4,34.1,15.0,-99.9,30,21,17,30.81,30.71,25,-271,28,0.00
2014-3-12,69.2,62.0,54.0,47.3,21.8,10.3,77,25,14,30.87,30.71,30,11,39,0.00
2014-3-13,70.6,52.2,48.8,46.4,25.5,-99.9,87,47,24,30.86,30.68,28,-408,40,0.07
2014-3-14,75.5,60.2,47.8,49.0,41.5,31.6,86,55,22,30.95,30.84,12,-55,16,0.00
2014-3-15,84.1,65.7,53.4,48.5,25.4,-99.9,79,32,6,31.05,30.93,14,-159,22,0.00
2014-3-16,86.6,72.9,62.9,27.7,17.9,8.7,20,13,6,31.07,30.86,18,-14,24,0.00
2014-3-17,78.1,66.6,55.7,48.1,31.0,15.0,74,31,14,30.90,30.53,16,-80,20,0.00
2014-3-18,74.1,58.7,48.0,49.3,34.8,7.0,95,56,11,30.77,30.60,20,-112,28,0.00
2014-3-19,77.5,63.8,54.4,41.9,19.6,7.0,47,20,7,30.89,30.77,12,-14,17,0.00
2014-3-20,76.4,63.4,52.7,40.2,27.3,19.8,61,27,13,30.88,30.69,13,-140,18,0.00
2014-3-21,68.7,49.8,46.3,48.2,30.9,-99.9,95,64,39,30.83,30.72,13,-240,17,0.00
2014-3-22,66.3,54.2,48.4,49.5,46.5,43.9,93,77,49,30.95,30.83,13,-96,19,0.00
2014-3-23,70.3,56.5,47.1,51.1,48.1,45.0,94,76,44,30.99,30.82,12,-7,18,0.00
2014-3-24,72.5,56.6,48.8,53.3,50.3,48.0,98,82,44,30.94,30.79,10,-63,14,0.00
2014-3-25,65.5,54.2,49.7,52.2,49.8,47.9,97,86,60,30.86,30.69,11,-48,14,0.00
2014-3-26,60.0,50.5,47.5,48.2,43.4,-99.9,96,79,46,30.83,30.72,17,-105,22,0.00
2014-3-27,60.3,50.8,45.6,45.4,43.3,39.0,95,77,48,30.97,30.83,13,-38,16,0.00
2014-3-28,72.3,55.7,44.2,49.5,44.3,40.6,94,70,34,31.03,30.90,12,-64,17,0.00
2014-3-29,77.5,63.2,53.2,48.6,43.5,30.4,81,53,19,31.00,30.75,16,-110,21,0.00
2014-3-30,67.6,55.2,49.2,48.7,43.6,35.7,95,68,34,30.87,30.75,15,-233,20,0.00
2014-3-31,53.7,48.5,45.6,40.2,38.4,36.0,73,68,57,30.88,30.84,4,1,6,0.00